National Weather Service Hourly Weather Roundup
NOAA NWS Hourly Roundups by Site
NOAA NWS Hourly Roundups by Site
Regional Weather Roundup for Sacramento, CA

To Select Another Site Choose from List

Select Site:  

000
ASUS46 KSTO 012215
RWRCA

NORTHERN AND CENTRAL CA REGIONAL WEATHER ROUNDUP
NATIONAL WEATHER SERVICE SACRAMENTO CA
300 PM PDT SUN AUG 01 2021

NOTE: FAIR INDICATES FEW OR NO CLOUDS BELOW 12,000 FEET WITH NO
SIGNIFICANT WEATHER AND/OR OBSTRUCTIONS TO VISIBILITY.

CAZ001-003-012300-
NORTHWEST AREA

CITY           SKY/WX    TMP DP  RH WIND       PRES   REMARKS
CRESCENT CITY  CLOUDY    58  52  80 S13       30.09S
UKIAH          SUNNY     94  50  22 SE13G22   29.96F HX  91
$$

CAZ006-505>513-012300-
BAY AREA

CITY           SKY/WX    TMP DP  RH WIND       PRES   REMARKS
SANTA ROSA     MOSUNNY   76  54  46 S13       30.05F
SAN RAFAEL     N/A       76  MM  MM MISG
NAPA           LGT RAIN  75  57  53 S18       30.03F
CONCORD        SUNNY     82  53  36 W14       30.01F
OAKLAND CITY   N/A       68  MM  MM MISG
OAKLAND        MOSUNNY   72  55  55 W18       30.07F
SAN FRAN CITY  N/A       65  MM  65 MISG
SAN FRAN ARPT  MOSUNNY   73  54  51 W16       30.06S
LIVERMORE      SUNNY     84  52  33 W16       30.01F
HAYWARD        SUNNY     72  55  55 NW16      30.06S
REDWOOD CITY   N/A       75  MM  53 MISG
MOFFETT ARPT   SUNNY     72  57  60 N13G20    30.05S
SAN JOSE ARPT  MOSUNNY   77  57  50 NW10      30.04S
$$
CAZ034-037-514>518-012300-
CENTRAL COAST

CITY           SKY/WX    TMP DP  RH WIND       PRES   REMARKS
WATSONVILLE    SUNNY     70  55  59 W12       30.09F
SALINAS        SUNNY     71  54  54 NW14      30.08F
MONTEREY       SUNNY     72  54  53 W15       30.09S
SAN LUIS OBISP SUNNY     78  56  46 NW14      30.06F
SANTA MARIA    SUNNY     73  56  54 NW14      30.08F
$$
CAZ015-016-012300-
NORTHERN SACRAMENTO VALLEY

CITY           SKY/WX    TMP DP  RH WIND       PRES   REMARKS
REDDING        SUNNY    103  46  14 SE8       29.93F HX  99
RED BLUFF      SUNNY    101  47  16 S9        29.94F HX  97
OROVILLE       SUNNY     97  53  22 CALM      29.96F HX  94
$$
CAZ016>018-012300-
SOUTHERN SACRAMENTO VALLEY

CITY           SKY/WX    TMP DP  RH WIND       PRES   REMARKS
AUBURN         SUNNY     95  46  18 W9        30.04F HX  91
BEALE AFB      SUNNY     95  54  24 S5        29.94F HX  93
LINCOLN        FAIR      95  52  23 W7        29.95F HX  92
MARYSVILLE     SUNNY     97  52  21 VRB5      29.95F HX  94
SAC INTL ARPT  SUNNY     94  58  29 S8        29.95F HX  93
MATHER AIRPORT SUNNY     93  52  24 SW8       29.95F HX  90
DOWNTOWN SAC   N/A       95  MM  MM MISG
SAC EXEC ARPT  SUNNY     90  52  27 S8        29.96F
VACAVILLE      SUNNY     94  52  24 S9        29.97F HX  91
TRAVIS AFB     SUNNY     90  46  21 SW22      29.97F
$$
CAZ019>021-012300-
SAN JOAQUIN VALLEY

CITY           SKY/WX    TMP DP  RH WIND       PRES   REMARKS
STOCKTON       SUNNY     90  47  22 W10       29.96F
MODESTO        SUNNY     92  50  23 N7        29.95F
MERCED         SUNNY     98  53  22 VRB3      29.94F HX  96
LEMOORE        SUNNY    102  50  17 E6        29.94F HX  99
FRESNO         MOSUNNY  102  42  13 VRB3      29.95F HX  97
HANFORD        SUNNY    103  51  17 VRB6      29.95F HX 100
PORTERVILLE    SUNNY    101  53  20 NW10      29.96F HX  99
BAKERSFIELD    MOSUNNY  103  50  17 NW16      29.93F HX 100
$$
CAZ011-012-071-012300-
NORTHERN MOUNTAINS

CITY           SKY/WX    TMP DP  RH WIND       PRES   REMARKS
YREKA          MOSUNNY   97  46  17 CALM      30.05F HX  93
MOUNT SHASTA   MOSUNNY   92  42  17 CALM      30.14F
ALTURAS        PTSUNNY   91  39  16 SW5       30.17F
$$
CAZ011-012-071-012300-
SIERRA NEVADA MTNS

CITY           SKY/WX    TMP DP  RH WIND       PRES   REMARKS
BLUE CANYON    SUNNY     82  35  18 SW10G18   30.31F
TRUCKEE        MOSUNNY   82  43  24 SW6       30.32
TAHOE VLY ARPT MOSUNNY   79  42  26 CALM      30.33F
$$


 

View Past Reports for Sacramento, CA.

Products Courtesy of NOAA-NWS
NWS Information Parsing Script by Ken True at Saratoga Weather - Script by SE Lincoln Weather.

powered by Cumulus v1.9.3 (1059)
Ambient Weather VWS v14.00
Top Website Map Copyright © 2007 - 2021 Foresthillweather.com Never base important decisions on this or any weather information obtained from the Internet